<?xml version='1.0' encoding='UTF-8'?>
<gpx xmlns="http://www.topografix.com/GPX/1/1" creator="www.balnam.be" version="1.1" xmlns:xsi="http://www.w3.org/2001/XMLSchema-instance" xsi:schemaLocation="http://www.topografix.com/GPX/1/1 http://www.topografix.com/GPX/1/1/gpx.xsd">
<trk>
<name>nhvmc1</name>
<cmt>d</cmt>
<desc>Miécret Chemin n°1 </desc>
<link href="https://chemins.be/miecret/chemin/1"/><trkseg>
<trkpt lat="50.372714" lon="5.268243"><time>2026-05-06T17:50:20Z</time></trkpt>
<trkpt lat="50.373093" lon="5.264581"><time>2026-05-06T18:00:20Z</time></trkpt>
</trkseg></trk>
<trk>
<name>nhvmc1</name>
<cmt>s</cmt>
<desc>Miécret Chemin n°1 </desc>
<link href="https://chemins.be/miecret/chemin/1"/><trkseg>
<trkpt lat="50.373093" lon="5.264581"><time>2026-05-06T18:00:20Z</time></trkpt>
<trkpt lat="50.373376" lon="5.264080"><time>2026-05-06T18:10:20Z</time></trkpt>
<trkpt lat="50.375033" lon="5.262565"><time>2026-05-06T18:20:20Z</time></trkpt>
<trkpt lat="50.376044" lon="5.260911"><time>2026-05-06T18:30:20Z</time></trkpt>
<trkpt lat="50.376635" lon="5.260050"><time>2026-05-06T18:40:20Z</time></trkpt>
<trkpt lat="50.377193" lon="5.258725"><time>2026-05-06T18:50:20Z</time></trkpt>
<trkpt lat="50.378219" lon="5.257521"><time>2026-05-06T19:00:20Z</time></trkpt>
<trkpt lat="50.379558" lon="5.255142"><time>2026-05-06T19:10:20Z</time></trkpt>
<trkpt lat="50.381484" lon="5.252590"><time>2026-05-06T19:20:20Z</time></trkpt>
</trkseg>
</trk>
<trk>
<name>nhvmc10</name>
<cmt>s</cmt>
<desc>Miécret Chemin n°10 </desc>
<link href="https://chemins.be/miecret/chemin/10"/><trkseg>
<trkpt lat="50.364617" lon="5.227425"><time>2026-05-06T17:50:20Z</time></trkpt>
<trkpt lat="50.364410" lon="5.223766"><time>2026-05-06T18:00:20Z</time></trkpt>
<trkpt lat="50.364324" lon="5.222078"><time>2026-05-06T18:10:20Z</time></trkpt>
<trkpt lat="50.363307" lon="5.216072"><time>2026-05-06T18:20:20Z</time></trkpt>
</trkseg></trk>
<trk>
<name>nhvmc10</name>
<cmt>v</cmt>
<desc>Miécret Chemin n°10 </desc>
<link href="https://chemins.be/miecret/chemin/10"/><trkseg>
<trkpt lat="50.363307" lon="5.216072"><time>2026-05-06T18:20:20Z</time></trkpt>
<trkpt lat="50.362475" lon="5.211827"><time>2026-05-06T18:30:20Z</time></trkpt>
<trkpt lat="50.362067" lon="5.210990"><time>2026-05-06T18:40:20Z</time></trkpt>
<trkpt lat="50.361556" lon="5.209618"><time>2026-05-06T18:50:20Z</time></trkpt>
<trkpt lat="50.361911" lon="5.207769"><time>2026-05-06T19:00:20Z</time></trkpt>
<trkpt lat="50.361855" lon="5.205562"><time>2026-05-06T19:10:20Z</time></trkpt>
<trkpt lat="50.361982" lon="5.204622"><time>2026-05-06T19:20:20Z</time></trkpt>
</trkseg>
</trk>
<trk>
<name>nhvmc12</name>
<cmt>v</cmt>
<desc>Miécret Chemin n°12 </desc>
<link href="https://chemins.be/miecret/chemin/12"/><trkseg>
<trkpt lat="50.379829" lon="5.249143"><time>2026-05-06T17:50:20Z</time></trkpt>
<trkpt lat="50.378002" lon="5.245776"><time>2026-05-06T18:00:20Z</time></trkpt>
<trkpt lat="50.377369" lon="5.245076"><time>2026-05-06T18:10:20Z</time></trkpt>
<trkpt lat="50.376821" lon="5.243786"><time>2026-05-06T18:20:20Z</time></trkpt>
<trkpt lat="50.376206" lon="5.243198"><time>2026-05-06T18:30:20Z</time></trkpt>
<trkpt lat="50.374683" lon="5.239965"><time>2026-05-06T18:40:20Z</time></trkpt>
<trkpt lat="50.373388" lon="5.237678"><time>2026-05-06T18:50:20Z</time></trkpt>
<trkpt lat="50.371930" lon="5.235430"><time>2026-05-06T19:00:20Z</time></trkpt>
<trkpt lat="50.371354" lon="5.234379"><time>2026-05-06T19:10:20Z</time></trkpt>
<trkpt lat="50.370761" lon="5.234298"><time>2026-05-06T19:20:20Z</time></trkpt>
<trkpt lat="50.370123" lon="5.233551"><time>2026-05-06T19:30:20Z</time></trkpt>
<trkpt lat="50.369322" lon="5.233161"><time>2026-05-06T19:40:20Z</time></trkpt>
</trkseg></trk>
<trk>
<name>nhvmc12</name>
<cmt>d</cmt>
<desc>Miécret Chemin n°12 </desc>
<link href="https://chemins.be/miecret/chemin/12"/><trkseg>
<trkpt lat="50.369322" lon="5.233161"><time>2026-05-06T19:40:20Z</time></trkpt>
<trkpt lat="50.367812" lon="5.231868"><time>2026-05-06T19:50:20Z</time></trkpt>
</trkseg>
</trk>
<trk>
<name>nhvmc15</name>
<cmt>v</cmt>
<desc>Miécret Chemin n°15 </desc>
<link href="https://chemins.be/miecret/chemin/15"/><trkseg>
<trkpt lat="50.360752" lon="5.220032"><time>2026-05-06T17:50:20Z</time></trkpt>
<trkpt lat="50.363267" lon="5.221497"><time>2026-05-06T18:00:20Z</time></trkpt>
</trkseg></trk>
<trk>
<name>nhvmc15</name>
<cmt>s</cmt>
<desc>Miécret Chemin n°15 </desc>
<link href="https://chemins.be/miecret/chemin/15"/><trkseg>
<trkpt lat="50.363267" lon="5.221497"><time>2026-05-06T18:00:20Z</time></trkpt>
<trkpt lat="50.365528" lon="5.222212"><time>2026-05-06T18:10:20Z</time></trkpt>
</trkseg></trk>
<trk>
<name>nhvmc15</name>
<cmt>v</cmt>
<desc>Miécret Chemin n°15 </desc>
<link href="https://chemins.be/miecret/chemin/15"/><trkseg>
<trkpt lat="50.365528" lon="5.222212"><time>2026-05-06T18:10:20Z</time></trkpt>
<trkpt lat="50.366365" lon="5.220850"><time>2026-05-06T18:20:20Z</time></trkpt>
<trkpt lat="50.367515" lon="5.219676"><time>2026-05-06T18:30:20Z</time></trkpt>
</trkseg>
</trk>
<trk>
<name>nhvmc19</name>
<cmt>v</cmt>
<desc>Miécret Chemin n°19 </desc>
<link href="https://chemins.be/miecret/chemin/19"/><trkseg>
<trkpt lat="50.367327" lon="5.249768"><time>2026-05-06T17:50:20Z</time></trkpt>
<trkpt lat="50.366345" lon="5.251142"><time>2026-05-06T18:00:20Z</time></trkpt>
</trkseg></trk>
<trk>
<name>nhvmc19</name>
<cmt>s</cmt>
<desc>Miécret Chemin n°19 </desc>
<link href="https://chemins.be/miecret/chemin/19"/><trkseg>
<trkpt lat="50.366345" lon="5.251142"><time>2026-05-06T18:00:20Z</time></trkpt>
<trkpt lat="50.366486" lon="5.251594"><time>2026-05-06T18:10:20Z</time></trkpt>
<trkpt lat="50.364750" lon="5.254050"><time>2026-05-06T18:20:20Z</time></trkpt>
</trkseg>
</trk>
<trk>
<name>nhvmc2</name>
<cmt>r</cmt>
<desc>Miécret Chemin n°2 Route de Bouillon</desc>
<link href="https://chemins.be/miecret/chemin/2"/><trkseg>
<trkpt lat="50.369420" lon="5.253560"><time>2026-05-06T17:50:20Z</time></trkpt>
<trkpt lat="50.369864" lon="5.255368"><time>2026-05-06T18:00:20Z</time></trkpt>
<trkpt lat="50.372103" lon="5.258953"><time>2026-05-06T18:10:20Z</time></trkpt>
<trkpt lat="50.374102" lon="5.261985"><time>2026-05-06T18:20:20Z</time></trkpt>
<trkpt lat="50.375576" lon="5.263208"><time>2026-05-06T18:30:20Z</time></trkpt>
<trkpt lat="50.376021" lon="5.262738"><time>2026-05-06T18:40:20Z</time></trkpt>
<trkpt lat="50.378339" lon="5.266437"><time>2026-05-06T18:50:20Z</time></trkpt>
</trkseg>
</trk>
<trk>
<name>nhvmc20</name>
<cmt>q</cmt>
<desc>Miécret Sentier n°20 </desc>
<link href="https://chemins.be/miecret/sentier/20"/><trkseg>
<trkpt lat="50.364833" lon="5.248935"><time>2026-05-06T17:50:20Z</time></trkpt>
<trkpt lat="50.364493" lon="5.248746"><time>2026-05-06T18:00:20Z</time></trkpt>
<trkpt lat="50.363818" lon="5.248832"><time>2026-05-06T18:10:20Z</time></trkpt>
<trkpt lat="50.362464" lon="5.247162"><time>2026-05-06T18:20:20Z</time></trkpt>
<trkpt lat="50.361726" lon="5.247289"><time>2026-05-06T18:30:20Z</time></trkpt>
<trkpt lat="50.360757" lon="5.245879"><time>2026-05-06T18:40:20Z</time></trkpt>
<trkpt lat="50.359877" lon="5.244472"><time>2026-05-06T18:50:20Z</time></trkpt>
</trkseg>
</trk>
<trk>
<name>nhvmc21</name>
<cmt>d</cmt>
<desc>Miécret Sentier n°21 </desc>
<link href="https://chemins.be/miecret/sentier/21"/><trkseg>
<trkpt lat="50.366278" lon="5.254106"><time>2026-05-06T17:50:20Z</time></trkpt>
<trkpt lat="50.366255" lon="5.257072"><time>2026-05-06T18:00:20Z</time></trkpt>
<trkpt lat="50.365246" lon="5.265501"><time>2026-05-06T18:10:20Z</time></trkpt>
</trkseg>
</trk>
<trk>
<name>nhvmc22</name>
<cmt>s</cmt>
<desc>Miécret Sentier n°22 </desc>
<link href="https://chemins.be/miecret/sentier/22"/><trkseg>
<trkpt lat="50.366782" lon="5.248127"><time>2026-05-06T17:50:20Z</time></trkpt>
<trkpt lat="50.365541" lon="5.248104"><time>2026-05-06T18:00:20Z</time></trkpt>
</trkseg>
</trk>
<trk>
<name>nhvmc23</name>
<cmt>d</cmt>
<desc>Miécret Sentier n°23 </desc>
<link href="https://chemins.be/miecret/sentier/23"/><trkseg>
<trkpt lat="50.368554" lon="5.250339"><time>2026-05-06T17:50:20Z</time></trkpt>
<trkpt lat="50.369033" lon="5.251262"><time>2026-05-06T18:00:20Z</time></trkpt>
<trkpt lat="50.369739" lon="5.251781"><time>2026-05-06T18:10:20Z</time></trkpt>
<trkpt lat="50.370076" lon="5.252448"><time>2026-05-06T18:20:20Z</time></trkpt>
</trkseg>
</trk>
<trk>
<name>nhvmc24</name>
<cmt>s</cmt>
<desc>Miécret Sentier n°24 </desc>
<link href="https://chemins.be/miecret/sentier/24"/><trkseg>
<trkpt lat="50.370771" lon="5.256735"><time>2026-05-06T17:50:20Z</time></trkpt>
<trkpt lat="50.370767" lon="5.258492"><time>2026-05-06T18:00:20Z</time></trkpt>
<trkpt lat="50.371202" lon="5.261565"><time>2026-05-06T18:10:20Z</time></trkpt>
<trkpt lat="50.371908" lon="5.263265"><time>2026-05-06T18:20:20Z</time></trkpt>
<trkpt lat="50.372569" lon="5.266159"><time>2026-05-06T18:30:20Z</time></trkpt>
<trkpt lat="50.372831" lon="5.267106"><time>2026-05-06T18:40:20Z</time></trkpt>
</trkseg>
</trk>
<trk>
<name>nhvmc25</name>
<cmt>q</cmt>
<desc>Miécret Sentier n°25 </desc>
<link href="https://chemins.be/miecret/sentier/25"/><trkseg>
<trkpt lat="50.372995" lon="5.265689"><time>2026-05-06T17:50:20Z</time></trkpt>
<trkpt lat="50.372605" lon="5.266132"><time>2026-05-06T18:00:20Z</time></trkpt>
<trkpt lat="50.371688" lon="5.267197"><time>2026-05-06T18:10:20Z</time></trkpt>
</trkseg>
</trk>
<trk>
<name>nhvmc26</name>
<cmt>v</cmt>
<desc>Miécret Sentier n°26 </desc>
<link href="https://chemins.be/miecret/sentier/26"/><trkseg>
<trkpt lat="50.373216" lon="5.241400"><time>2026-05-06T17:50:20Z</time></trkpt>
<trkpt lat="50.373996" lon="5.242905"><time>2026-05-06T18:00:20Z</time></trkpt>
<trkpt lat="50.374662" lon="5.242861"><time>2026-05-06T18:10:20Z</time></trkpt>
<trkpt lat="50.376071" lon="5.243126"><time>2026-05-06T18:20:20Z</time></trkpt>
</trkseg>
</trk>
<trk>
<name>nhvmc27</name>
<cmt>s</cmt>
<desc>Miécret Sentier n°27 </desc>
<link href="https://chemins.be/miecret/sentier/27"/><trkseg>
<trkpt lat="50.368163" lon="5.235417"><time>2026-05-06T17:50:20Z</time></trkpt>
<trkpt lat="50.369016" lon="5.236796"><time>2026-05-06T18:00:20Z</time></trkpt>
<trkpt lat="50.370540" lon="5.238511"><time>2026-05-06T18:10:20Z</time></trkpt>
<trkpt lat="50.372209" lon="5.240215"><time>2026-05-06T18:20:20Z</time></trkpt>
<trkpt lat="50.373145" lon="5.241343"><time>2026-05-06T18:30:20Z</time></trkpt>
<trkpt lat="50.374563" lon="5.242803"><time>2026-05-06T18:40:20Z</time></trkpt>
</trkseg>
</trk>
<trk>
<name>nhvmc28</name>
<cmt>d</cmt>
<desc>Miécret Sentier n°28 </desc>
<link href="https://chemins.be/miecret/sentier/28"/><trkseg>
<trkpt lat="50.364928" lon="5.229201"><time>2026-05-06T17:50:20Z</time></trkpt>
<trkpt lat="50.365759" lon="5.226152"><time>2026-05-06T18:00:20Z</time></trkpt>
<trkpt lat="50.366064" lon="5.225033"><time>2026-05-06T18:10:20Z</time></trkpt>
<trkpt lat="50.367349" lon="5.220319"><time>2026-05-06T18:20:20Z</time></trkpt>
</trkseg>
</trk>
<trk>
<name>nhvmc29</name>
<cmt>d</cmt>
<desc>Miécret Sentier n°29 </desc>
<link href="https://chemins.be/miecret/sentier/29"/><trkseg>
<trkpt lat="50.365410" lon="5.234425"><time>2026-05-06T17:50:20Z</time></trkpt>
<trkpt lat="50.364546" lon="5.234564"><time>2026-05-06T18:00:20Z</time></trkpt>
<trkpt lat="50.362514" lon="5.236959"><time>2026-05-06T18:10:20Z</time></trkpt>
<trkpt lat="50.361735" lon="5.238926"><time>2026-05-06T18:20:20Z</time></trkpt>
<trkpt lat="50.360713" lon="5.239807"><time>2026-05-06T18:30:20Z</time></trkpt>
</trkseg>
</trk>
<trk>
<name>nhvmc3</name>
<cmt>r</cmt>
<desc>Miécret Chemin n°3 Rue du Bois Thys / ?</desc>
<link href="https://chemins.be/miecret/chemin/3"/><trkseg>
<trkpt lat="50.369368" lon="5.253236"><time>2026-05-06T17:50:20Z</time></trkpt>
<trkpt lat="50.370626" lon="5.252233"><time>2026-05-06T18:00:20Z</time></trkpt>
<trkpt lat="50.372399" lon="5.253082"><time>2026-05-06T18:10:20Z</time></trkpt>
<trkpt lat="50.375893" lon="5.253639"><time>2026-05-06T18:20:20Z</time></trkpt>
<trkpt lat="50.376964" lon="5.252267"><time>2026-05-06T18:30:20Z</time></trkpt>
</trkseg></trk>
<trk>
<name>nhvmc3</name>
<cmt>v</cmt>
<desc>Miécret Chemin n°3 Rue du Bois Thys / ?</desc>
<link href="https://chemins.be/miecret/chemin/3"/><trkseg>
<trkpt lat="50.376964" lon="5.252267"><time>2026-05-06T18:30:20Z</time></trkpt>
<trkpt lat="50.377502" lon="5.251307"><time>2026-05-06T18:40:20Z</time></trkpt>
<trkpt lat="50.379067" lon="5.250014"><time>2026-05-06T18:50:20Z</time></trkpt>
<trkpt lat="50.379883" lon="5.249186"><time>2026-05-06T19:00:20Z</time></trkpt>
</trkseg>
</trk>
<trk>
<name>nhvmc30</name>
<cmt>v</cmt>
<desc>Miécret Sentier n°30 </desc>
<link href="https://chemins.be/miecret/sentier/30"/><trkseg>
<trkpt lat="50.364891" lon="5.229327"><time>2026-05-06T17:50:20Z</time></trkpt>
<trkpt lat="50.364500" lon="5.228660"><time>2026-05-06T18:00:20Z</time></trkpt>
</trkseg></trk>
<trk>
<name>nhvmc30</name>
<cmt>d</cmt>
<desc>Miécret Sentier n°30 </desc>
<link href="https://chemins.be/miecret/sentier/30"/><trkseg>
<trkpt lat="50.364500" lon="5.228660"><time>2026-05-06T18:00:20Z</time></trkpt>
<trkpt lat="50.364169" lon="5.228443"><time>2026-05-06T18:10:20Z</time></trkpt>
<trkpt lat="50.362979" lon="5.227704"><time>2026-05-06T18:20:20Z</time></trkpt>
<trkpt lat="50.362004" lon="5.226942"><time>2026-05-06T18:30:20Z</time></trkpt>
</trkseg>
</trk>
<trk>
<name>nhvmc31</name>
<cmt>q</cmt>
<desc>Miécret Sentier n°31 </desc>
<link href="https://chemins.be/miecret/sentier/31"/><trkseg>
<trkpt lat="50.369425" lon="5.243397"><time>2026-05-06T17:50:20Z</time></trkpt>
<trkpt lat="50.369545" lon="5.242935"><time>2026-05-06T18:00:20Z</time></trkpt>
</trkseg></trk>
<trk>
<name>nhvmc31</name>
<cmt>d</cmt>
<desc>Miécret Sentier n°31 </desc>
<link href="https://chemins.be/miecret/sentier/31"/><trkseg>
<trkpt lat="50.369545" lon="5.242935"><time>2026-05-06T18:00:20Z</time></trkpt>
<trkpt lat="50.370176" lon="5.240388"><time>2026-05-06T18:10:20Z</time></trkpt>
<trkpt lat="50.370545" lon="5.237851"><time>2026-05-06T18:20:20Z</time></trkpt>
<trkpt lat="50.370948" lon="5.235763"><time>2026-05-06T18:30:20Z</time></trkpt>
<trkpt lat="50.371387" lon="5.234787"><time>2026-05-06T18:40:20Z</time></trkpt>
</trkseg>
</trk>
<trk>
<name>nhvmc32</name>
<cmt>s</cmt>
<desc>Miécret Sentier n°32 </desc>
<link href="https://chemins.be/miecret/sentier/32"/><trkseg>
<trkpt lat="50.367545" lon="5.244740"><time>2026-05-06T17:50:20Z</time></trkpt>
<trkpt lat="50.366877" lon="5.242675"><time>2026-05-06T18:00:20Z</time></trkpt>
<trkpt lat="50.366478" lon="5.241909"><time>2026-05-06T18:10:20Z</time></trkpt>
<trkpt lat="50.364998" lon="5.241474"><time>2026-05-06T18:20:20Z</time></trkpt>
</trkseg>
</trk>
<trk>
<name>nhvmc6</name>
<cmt>v</cmt>
<desc>Miécret Chemin n°6 Trou-Perdu / Rue Cleuzeur</desc>
<link href="https://chemins.be/miecret/chemin/6"/><trkseg>
<trkpt lat="50.368553" lon="5.252898"><time>2026-05-06T17:50:20Z</time></trkpt>
<trkpt lat="50.367989" lon="5.253646"><time>2026-05-06T18:00:20Z</time></trkpt>
<trkpt lat="50.367294" lon="5.252902"><time>2026-05-06T18:10:20Z</time></trkpt>
</trkseg></trk>
<trk>
<name>nhvmc6</name>
<cmt>r</cmt>
<desc>Miécret Chemin n°6 Trou-Perdu / Rue Cleuzeur</desc>
<link href="https://chemins.be/miecret/chemin/6"/><trkseg>
<trkpt lat="50.367294" lon="5.252902"><time>2026-05-06T18:10:20Z</time></trkpt>
<trkpt lat="50.367095" lon="5.253039"><time>2026-05-06T18:20:20Z</time></trkpt>
<trkpt lat="50.366232" lon="5.254134"><time>2026-05-06T18:30:20Z</time></trkpt>
<trkpt lat="50.365487" lon="5.253979"><time>2026-05-06T18:40:20Z</time></trkpt>
<trkpt lat="50.364847" lon="5.254276"><time>2026-05-06T18:50:20Z</time></trkpt>
<trkpt lat="50.364595" lon="5.254272"><time>2026-05-06T19:00:20Z</time></trkpt>
<trkpt lat="50.362534" lon="5.256946"><time>2026-05-06T19:10:20Z</time></trkpt>
<trkpt lat="50.359455" lon="5.260922"><time>2026-05-06T19:20:20Z</time></trkpt>
</trkseg>
</trk>
<trk>
<name>nhvmc7</name>
<cmt>r</cmt>
<desc>Miécret Chemin n°7 Rue Hietine / Ruelle de Huy</desc>
<link href="https://chemins.be/miecret/chemin/7"/><trkseg>
<trkpt lat="50.369279" lon="5.243605"><time>2026-05-06T17:50:20Z</time></trkpt>
<trkpt lat="50.371389" lon="5.242815"><time>2026-05-06T18:00:20Z</time></trkpt>
</trkseg></trk>
<trk>
<name>nhvmc7</name>
<cmt>v</cmt>
<desc>Miécret Chemin n°7 Rue Hietine / Ruelle de Huy</desc>
<link href="https://chemins.be/miecret/chemin/7"/><trkseg>
<trkpt lat="50.371389" lon="5.242815"><time>2026-05-06T18:00:20Z</time></trkpt>
<trkpt lat="50.372247" lon="5.242338"><time>2026-05-06T18:10:20Z</time></trkpt>
<trkpt lat="50.373209" lon="5.241161"><time>2026-05-06T18:20:20Z</time></trkpt>
<trkpt lat="50.374756" lon="5.239910"><time>2026-05-06T18:30:20Z</time></trkpt>
</trkseg>
</trk>
<trk>
<name>nhvmc9</name>
<cmt>v</cmt>
<desc>Miécret Chemin n°9 </desc>
<link href="https://chemins.be/miecret/chemin/9"/><trkseg>
<trkpt lat="50.363671" lon="5.244584"><time>2026-05-06T17:50:20Z</time></trkpt>
<trkpt lat="50.361878" lon="5.240278"><time>2026-05-06T18:00:20Z</time></trkpt>
<trkpt lat="50.361781" lon="5.238815"><time>2026-05-06T18:10:20Z</time></trkpt>
<trkpt lat="50.361256" lon="5.236837"><time>2026-05-06T18:20:20Z</time></trkpt>
</trkseg>
</trk>
<trk>
<name>nhvmci1</name>
<cmt>d</cmt>
<desc>Miécret Chemin n°i1 </desc>
<link href="https://chemins.be/miecret/chemin/i1"/><trkseg>
<trkpt lat="50.360653" lon="5.220044"><time>2026-05-06T17:50:20Z</time></trkpt>
<trkpt lat="50.361999" lon="5.217820"><time>2026-05-06T18:00:20Z</time></trkpt>
<trkpt lat="50.363271" lon="5.216114"><time>2026-05-06T18:10:20Z</time></trkpt>
</trkseg>
</trk>
<trk>
<name>nhvmci2</name>
<cmt>v</cmt>
<desc>Miécret Chemin n°i2 </desc>
<link href="https://chemins.be/miecret/chemin/i2"/><trkseg>
<trkpt lat="50.368525" lon="5.235044"><time>2026-05-06T17:50:20Z</time></trkpt>
<trkpt lat="50.369372" lon="5.238518"><time>2026-05-06T18:00:20Z</time></trkpt>
</trkseg>
</trk>
<trk>
<name>nhvmci3</name>
<cmt>v</cmt>
<desc>Miécret Chemin n°i3 </desc>
<link href="https://chemins.be/miecret/chemin/i3"/><trkseg>
<trkpt lat="50.364910" lon="5.229103"><time>2026-05-06T17:50:20Z</time></trkpt>
<trkpt lat="50.366502" lon="5.227923"><time>2026-05-06T18:00:20Z</time></trkpt>
<trkpt lat="50.366728" lon="5.227660"><time>2026-05-06T18:10:20Z</time></trkpt>
<trkpt lat="50.366477" lon="5.226432"><time>2026-05-06T18:20:20Z</time></trkpt>
<trkpt lat="50.365446" lon="5.222253"><time>2026-05-06T18:30:20Z</time></trkpt>
<trkpt lat="50.364380" lon="5.219380"><time>2026-05-06T18:40:20Z</time></trkpt>
<trkpt lat="50.363369" lon="5.216129"><time>2026-05-06T18:50:20Z</time></trkpt>
</trkseg>
</trk>
<trk>
<name>nhvmci4</name>
<cmt>v</cmt>
<desc>Miécret Chemin n°i4 </desc>
<link href="https://chemins.be/miecret/chemin/i4"/><trkseg>
<trkpt lat="50.363151" lon="5.221439"><time>2026-05-06T17:50:20Z</time></trkpt>
<trkpt lat="50.364379" lon="5.219451"><time>2026-05-06T18:00:20Z</time></trkpt>
</trkseg>
</trk>
<trk>
<name>nhvmci5</name>
<cmt>q</cmt>
<desc>Miécret Chemin n°i5 </desc>
<link href="https://chemins.be/miecret/chemin/i5"/><trkseg>
<trkpt lat="50.360657" lon="5.202139"><time>2026-05-06T17:50:20Z</time></trkpt>
<trkpt lat="50.362518" lon="5.205868"><time>2026-05-06T18:00:20Z</time></trkpt>
<trkpt lat="50.364398" lon="5.209429"><time>2026-05-06T18:10:20Z</time></trkpt>
<trkpt lat="50.365198" lon="5.211987"><time>2026-05-06T18:20:20Z</time></trkpt>
<trkpt lat="50.365926" lon="5.214516"><time>2026-05-06T18:30:20Z</time></trkpt>
<trkpt lat="50.366787" lon="5.217231"><time>2026-05-06T18:40:20Z</time></trkpt>
<trkpt lat="50.367775" lon="5.219793"><time>2026-05-06T18:50:20Z</time></trkpt>
</trkseg>
</trk>
<trk>
<name>nhvmcp1</name>
<cmt>v</cmt>
<desc>Miécret Chemin particulier n°p1 </desc>
<link href="https://chemins.be/miecret/chemin/p1"/><trkseg>
<trkpt lat="50.368279" lon="5.239159"><time>2026-05-06T17:50:20Z</time></trkpt>
<trkpt lat="50.369300" lon="5.238531"><time>2026-05-06T18:00:20Z</time></trkpt>
<trkpt lat="50.370212" lon="5.240403"><time>2026-05-06T18:10:20Z</time></trkpt>
<trkpt lat="50.371151" lon="5.242178"><time>2026-05-06T18:20:20Z</time></trkpt>
<trkpt lat="50.371264" lon="5.242700"><time>2026-05-06T18:30:20Z</time></trkpt>
</trkseg>
</trk>
</gpx>